Theta_e
305 303 305 305 306 305 304 305 305 304 303 303 302 303 303 303 304 304 304 304 303 303 305 306 307 307 308 312 312 308 307 308 308 307 309 308 308 311 311 312 312 311 312 312 312 311 312
314 313 313 311 308 308 305 302 301 303 306 304 304 304 304 305 305 305 304 303 303 303 305 306 306 307 308 314 312 307 307 308 308 306 309 307 309 311 312 313 312 312 312 311 312 312 312
315 315 315 313 314 312 312 311 308 305 301 305 306 306 307 307 307 306 304 303 303 304 305 306 306 307 310 313 309 307 308 309 309 307 307 308 307 309 311 312 313 312 311 311 312 312 312
317 317 317 316 315 314 314 313 311 311 308 301 303 306 307 308 307 307 304 304 304 305 306 306 307 308 315 311 308 307 308 308 310 308 308 309 309 312 312 312 313 312 312 312 312 310 312
315 314 313 314 317 316 314 313 313 313 312 309 303 303 304 307 307 307 305 304 305 306 306 307 309 309 314 309 307 309 307 308 308 309 312 313 312 312 312 312 308 313 308 310 310 311 311
311 311 312 312 312 314 316 315 314 313 313 313 309 310 305 304 307 306 305 305 308 309 309 309 309 309 311 311 310 308 307 308 308 310 312 313 312 310 310 310 308 309 309 310 311 310 310
305 305 308 311 311 311 312 314 314 314 313 313 313 312 312 302 306 305 305 306 307 313 307 306 310 312 310 309 308 308 308 308 311 312 312 313 308 308 313 311 311 310 311 310 311 311 311
297 298 300 303 308 309 311 314 316 314 314 313 312 312 313 312 303 305 305 307 306 306 308 307 310 310 309 309 308 310 310 311 311 311 311 309 309 313 311 311 311 311 310 310 311 311 310
298 298 296 298 303 306 309 311 314 315 315 313 313 312 312 313 306 304 308 307 306 307 307 309 309 309 309 307 309 311 311 311 310 312 312 310 311 312 312 311 311 311 311 312 312 311 310
299 302 301 300 298 302 305 309 311 313 314 313 314 313 312 312 311 304 310 306 306 307 302 300 308 310 309 310 311 311 310 310 311 312 311 310 311 312 312 312 312 307 311 311 311 309 308
301 303 303 304 302 302 299 305 307 310 311 312 313 314 313 312 312 307 305 304 306 310 297 304 309 311 311 311 312 311 310 311 310 311 310 307 313 312 312 312 312 310 311 311 311 310 305
301 301 300 301 303 301 301 301 300 306 309 310 310 312 310 313 312 311 304 304 309 300 296 303 311 311 311 311 312 312 311 310 311 311 311 310 311 311 311 312 311 311 311 309 305 303 306
302 301 301 302 301 303 302 300 301 303 306 307 309 311 312 313 311 311 305 308 302 298 303 306 310 312 312 312 312 312 312 311 310 308 309 309 312 312 312 312 310 310 307 302 302 301 306
301 300 301 301 300 303 302 300 302 305 305 306 305 308 311 312 313 311 305 306 305 303 309 310 311 311 312 311 311 312 311 310 310 311 307 305 305 312 311 311 311 310 308 304 308 304 308
300 301 302 302 300 302 302 300 303 304 305 306 304 306 311 311 312 312 308 305 304 306 307 308 310 311 309 311 310 311 310 310 310 310 308 308 308 311 310 311 310 310 307 308 310 308 308
301 299 301 301 301 300 300 301 303 304 305 305 304 309 307 309 311 310 308 308 308 308 306 307 308 308 307 310 309 309 309 308 310 310 309 309 308 308 310 310 309 309 308 306 304 306 309
300 301 300 299 300 301 301 301 302 303 305 304 304 307 307 308 309 307 308 308 310 310 310 306 307 308 307 306 308 308 307 308 309 310 310 310 308 307 309 310 309 309 309 309 307 307 303
299 300 300 301 300 300 300 301 302 303 304 303 305 306 306 308 307 307 308 308 309 309 310 307 307 308 307 305 304 304 305 306 310 310 310 308 308 307 308 307 307 308 308 306 303 305 307
295 298 300 301 300 300 300 300 302 302 303 303 305 304 305 306 307 307 307 307 308 307 307 309 308 307 306 306 307 305 305 308 310 309 309 309 308 304 303 305 307 308 308 308 306 304 309
291 294 297 299 300 300 300 301 300 301 301 304 303 303 303 305 304 305 306 306 307 308 308 308 309 308 308 308 307 307 307 308 309 309 310 310 307 305 305 304 306 308 308 308 307 304 308
293 292 295 298 298 298 298 299 300 301 301 302 303 303 304 304 304 305 305 304 305 308 308 308 308 309 309 308 307 307 307 306 306 308 309 307 308 307 307 307 307 307 307 307 307 308 307
295 294 292 295 296 297 297 297 298 299 301 302 302 302 302 302 303 302 303 303 304 304 305 305 306 307 307 309 308 310 308 307 307 305 308 307 308 308 307 307 306 305 306 306 306 307 306
294 294 295 293 293 294 294 295 297 298 300 301 301 302 302 301 302 304 304 304 303 304 304 305 306 306 305 306 306 306 306 306 307 306 306 308 308 305 308 304 305 305 306 306 306 306 306
291 292 294 295 295 294 293 293 292 295 297 298 298 299 299 300 302 302 302 302 303 304 305 303 304 304 303 304 305 304 305 304 304 304 306 307 308 305 307 304 306 305 305 304 305 305 304
291 290 290 290 292 291 293 293 293 293 293 294 296 297 297 298 298 298 298 299 298 298 298 300 301 302 302 303 303 303 302 303 303 304 304 305 306 305 308 304 304 306 305 306 306 306 304
293 293 293 293 292 291 291 291 292 293 293 292 292 295 296 297 295 296 296 296 295 296 297 299 298 299 302 301 302 302 303 304 303 303 301 303 305 307 303 307 307 306 305 304 302 304 303
292 292 292 293 293 293 293 293 292 291 292 294 293 293 294 294 294 294 294 294 295 297 295 298 298 298 301 299 302 303 303 304 304 305 305 302 304 309 308 309 305 304 305 303 305 305 304
291 292 292 292 292 293 293 293 293 293 291 292 293 293 293 294 293 293 293 294 295 295 294 296 296 296 301 302 303 302 302 302 302 303 302 304 304 305 307 308 306 305 302 304 304 304 303
291 291 291 291 291 292 292 292 292 293 293 292 293 294 294 294 294 294 294 293 294 294 295 295 296 296 301 304 301 301 302 301 302 303 302 304 304 303 303 305 304 305 305 305 305 304 303
Wind_Speed
10 10 10 9 11 13 15 14 15 13 12 12 11 11 11 10 11 12 12 11 11 10 10 10 8 6 3 2 1 2 7 9 11 10 13 11 15 6 2 5 9 2 4 12 19 25 21
11 11 13 12 12 14 15 16 16 15 14 13 12 13 13 13 13 13 13 12 10 10 10 9 8 6 2 1 1 1 7 9 11 9 9 11 7 4 3 4 2 7 13 22 15 17 15
8 9 11 12 14 14 15 16 16 16 14 14 14 12 12 12 14 14 14 12 11 11 11 9 6 1 1 2 2 2 8 9 11 9 7 8 5 3 3 4 6 10 5 9 7 5 6
9 11 12 11 12 14 15 15 15 17 17 15 13 13 13 13 14 15 15 13 13 12 10 8 1 0 1 2 4 3 6 8 10 10 9 7 6 3 1 6 6 2 1 5 6 14 7
18 17 16 16 14 14 14 15 17 16 17 17 13 13 13 13 14 15 15 15 14 10 5 2 1 2 0 0 2 3 6 7 6 6 7 8 3 2 2 2 5 3 3 6 9 11 5
24 24 23 22 19 15 17 16 14 14 14 15 14 15 16 14 14 14 15 15 10 4 4 2 4 1 2 2 3 6 7 5 4 4 4 2 1 2 3 4 2 6 5 5 11 6 18
27 26 26 25 25 21 17 17 18 14 13 14 13 13 16 16 14 14 14 9 6 2 9 4 6 3 3 6 6 4 4 5 3 2 1 2 5 1 4 1 2 5 5 11 15 18 15
23 27 25 24 25 23 17 15 17 15 14 14 13 13 13 17 14 12 12 7 8 7 9 6 9 12 12 10 3 5 2 1 0 2 6 4 3 5 5 3 4 7 8 12 12 8 10
18 18 22 26 25 25 23 22 18 15 16 13 11 13 12 14 11 12 11 11 10 8 5 4 3 1 2 4 2 6 2 0 3 2 2 4 5 6 1 3 4 6 6 7 10 14 10
16 17 17 18 20 26 26 27 25 20 14 14 15 13 10 11 6 12 7 12 11 9 4 6 0 1 2 4 1 3 4 2 2 3 3 5 4 2 3 5 4 4 5 7 12 8 5
16 16 15 17 17 16 26 22 28 26 23 19 14 16 10 9 8 7 8 10 9 5 5 4 3 4 2 3 1 2 4 1 3 1 3 6 2 4 3 5 1 9 3 8 14 9 3
15 16 17 15 18 16 16 16 24 18 23 23 19 16 11 10 8 5 7 6 4 6 5 3 3 1 1 4 3 4 2 3 4 3 4 8 3 3 6 3 6 7 6 10 2 4 1
16 18 17 14 15 15 14 15 13 16 18 20 22 18 17 12 8 6 5 2 5 4 3 2 1 4 4 4 4 5 3 2 3 3 2 5 3 2 4 3 4 4 6 4 6 4 5
15 16 15 11 11 13 13 13 11 12 14 16 16 19 17 13 11 5 2 4 3 4 4 1 2 3 4 5 3 5 2 4 6 2 2 1 8 7 5 5 4 3 5 4 4 3 11
14 12 10 8 7 11 13 15 11 11 12 11 11 13 20 14 12 6 4 2 7 5 3 5 1 2 3 2 1 3 6 4 4 9 6 2 5 2 5 6 6 1 1 5 3 5 3
13 11 10 8 8 10 10 8 10 9 9 10 9 12 16 17 12 7 2 5 5 5 3 5 3 6 2 3 3 5 4 4 4 7 5 3 6 4 3 2 5 5 2 3 2 4 6
15 12 11 9 8 10 11 8 8 7 7 8 7 5 5 19 11 6 4 6 4 16 11 4 3 3 3 2 3 2 5 3 2 3 5 1 4 6 4 5 6 2 2 2 1 2 4
11 14 10 10 9 8 5 4 6 6 7 6 6 3 6 14 7 5 4 4 4 6 4 5 1 3 3 7 5 4 6 6 7 10 5 6 4 4 11 12 6 6 8 7 4 5 5
10 10 13 10 8 8 7 5 5 5 5 7 3 5 8 17 4 5 4 4 10 6 8 4 3 5 5 3 4 4 5 4 11 7 4 2 3 4 9 4 4 1 3 3 3 2 17
9 8 9 9 9 7 7 5 5 6 5 9 2 2 5 14 10 2 1 3 5 10 7 8 3 3 4 5 6 5 6 5 4 8 12 5 4 7 10 8 5 15 16 14 6 4 11
9 7 5 6 8 8 9 6 6 5 6 6 5 3 4 3 6 8 4 3 3 3 3 7 3 10 12 6 7 10 7 6 8 17 8 7 5 6 10 11 11 18 22 22 15 20 8
8 9 7 7 6 6 7 7 6 5 6 7 3 2 2 3 4 11 9 7 11 11 4 6 8 7 5 2 5 5 7 2 5 6 4 2 4 3 6 12 11 14 24 21 17 17 14
7 7 6 6 8 9 9 9 8 6 4 3 4 3 3 4 3 2 3 4 5 5 8 17 9 6 9 14 14 8 13 19 17 13 8 6 2 1 6 4 12 11 8 4 5 6 6
9 9 7 6 6 7 7 8 9 8 6 4 7 8 2 2 2 1 2 2 4 8 6 13 11 5 13 19 22 22 22 21 25 21 21 10 7 3 4 5 4 6 12 8 9 8 8
8 7 8 8 9 10 9 8 7 6 6 5 5 5 2 2 3 5 10 8 13 17 14 10 19 22 23 22 7 7 4 5 11 17 15 17 10 3 5 3 10 13 3 4 2 7 1
11 10 9 9 9 9 9 9 7 5 6 7 6 8 6 3 5 12 7 7 3 2 6 13 22 24 23 6 3 9 6 2 5 6 5 2 6 8 3 4 6 5 1 3 3 4 4
13 13 14 12 12 10 9 10 10 9 7 8 10 7 7 6 13 22 9 7 3 2 3 11 9 9 14 3 6 9 10 4 7 6 1 2 1 13 10 8 9 9 8 6 2 4 2
15 15 15 13 14 13 14 14 14 12 9 10 14 12 12 12 18 26 30 22 17 14 4 6 10 8 3 6 4 5 5 7 10 12 6 8 6 4 5 4 12 11 5 6 3 2 4
16 17 17 17 16 16 16 17 17 16 14 12 18 14 14 18 19 32 37 32 26 24 28 18 13 16 6 3 4 3 5 3 9 12 6 9 8 6 11 9 8 9 9 9 5 4 4
Wind_Direction
12 9 354 338 345 355 358 352 345 340 336 325 325 326 326 329 332 330 329 327 323 328 338 346 347 357 37 53 171 345 354 0 16 16 23 31 37 32 32 337 339 201 307 310 290 294 282
9 20 12 5 343 5 355 355 354 345 341 337 334 334 334 338 337 334 332 329 324 324 330 340 338 341 27 83 295 311 348 0 9 21 21 28 25 21 323 288 301 299 299 292 294 282 267
329 338 346 352 358 356 355 356 356 356 352 347 341 344 344 341 338 337 333 328 325 323 325 325 323 325 97 157 299 300 344 0 10 10 14 11 15 21 322 310 296 283 311 305 283 319 255
302 306 312 318 323 329 336 341 350 354 356 351 349 351 348 342 338 336 333 328 324 321 321 322 90 294 150 287 285 282 342 348 347 3 9 10 11 49 248 307 312 245 219 350 300 312 311
292 297 301 306 302 302 311 319 333 344 352 1 11 4 355 346 340 339 335 327 321 324 341 64 2 99 356 323 227 301 323 327 329 356 21 15 33 357 306 337 359 342 283 293 320 320 292
286 283 283 285 287 291 295 298 307 321 335 353 359 5 1 352 345 342 338 332 325 359 31 35 63 336 215 180 290 298 317 333 347 337 306 325 14 28 8 67 285 299 328 293 287 278 307
279 278 274 273 277 279 285 287 289 303 315 325 345 356 2 355 349 347 348 351 356 357 326 268 294 275 249 263 296 285 325 340 11 329 350 214 48 263 268 147 238 282 262 273 278 287 300
279 275 270 268 269 268 273 273 268 281 290 304 320 335 351 356 350 355 7 43 24 337 313 293 250 256 252 260 269 258 321 41 309 304 316 14 227 220 227 243 249 271 287 284 288 275 305
289 288 276 266 261 262 254 255 269 273 273 286 299 320 336 348 0 5 9 17 360 342 280 318 263 220 211 220 221 214 229 306 229 253 254 193 244 324 229 286 288 267 243 278 270 312 281
297 300 293 284 276 256 257 250 251 254 266 274 284 292 318 343 340 348 0 351 347 341 48 283 197 139 193 142 239 220 210 271 267 242 298 237 240 199 278 271 214 291 229 260 293 346 321
297 291 297 301 290 285 256 261 249 254 258 266 282 275 294 321 331 340 332 338 336 347 16 259 138 167 153 207 179 209 218 224 238 270 60 260 220 214 264 233 120 242 308 288 286 286 23
322 311 298 293 288 293 282 288 260 264 261 257 263 271 275 286 299 326 341 330 334 45 261 334 123 195 183 212 215 158 175 244 264 306 217 245 266 244 218 256 239 291 299 299 37 99 20
311 303 292 290 275 287 301 295 270 257 258 264 252 252 266 273 266 289 323 345 43 132 306 273 232 162 254 195 216 171 170 212 213 28 319 315 227 229 174 300 315 45 29 345 356 8 238
318 324 314 284 283 278 293 304 245 258 254 262 250 245 247 256 264 267 243 61 126 253 256 101 106 179 230 164 241 181 284 283 229 175 328 109 332 171 177 207 220 277 142 147 281 283 290
334 338 339 320 298 278 293 294 232 262 260 265 248 237 239 232 253 232 179 104 204 207 325 358 292 182 268 215 180 160 213 231 201 170 178 310 271 207 187 192 157 173 213 194 230 265 289
338 349 338 331 307 298 305 287 238 261 266 264 239 224 231 227 228 191 156 228 226 180 58 23 308 185 279 227 184 173 232 208 182 178 134 292 301 264 260 129 250 168 177 15 7 309 297
359 350 346 333 330 317 302 270 254 263 256 263 202 218 233 225 212 173 213 216 267 267 315 222 240 313 343 25 252 248 257 301 147 165 149 223 172 287 16 212 190 82 277 162 185 178 226
334 352 349 353 348 336 341 250 268 257 245 207 182 215 203 194 211 179 218 200 255 296 342 265 298 212 237 301 279 262 236 234 171 152 182 215 220 260 231 263 218 214 231 173 136 256 233
324 323 353 342 344 349 328 283 263 266 240 197 202 217 204 186 239 218 255 246 232 239 270 255 238 222 207 232 296 254 269 234 166 158 179 162 261 319 328 0 1 31 252 215 256 168 260
329 326 332 345 1 13 9 354 279 258 230 209 211 215 195 215 243 329 225 244 242 234 250 270 227 11 339 306 279 275 312 308 244 199 199 171 212 195 247 255 312 291 273 271 221 245 279
340 326 308 347 347 358 359 355 322 308 265 231 208 249 194 195 230 224 198 333 323 320 278 6 306 222 231 242 258 263 263 324 322 290 187 172 229 238 262 277 280 277 280 280 259 250 242
333 344 319 299 313 311 313 327 341 302 259 254 265 219 277 301 289 201 225 221 238 263 232 263 247 293 10 352 286 293 331 340 271 353 334 297 271 288 283 279 285 292 279 268 257 260 249
306 328 343 331 302 306 305 301 309 314 312 250 227 214 244 236 205 212 209 186 216 215 263 237 242 275 268 263 275 312 297 285 261 272 270 243 216 276 266 317 315 289 260 208 239 214 219
280 285 292 310 327 332 328 311 300 295 304 287 314 319 300 253 222 247 340 293 268 249 239 273 257 253 266 289 298 301 294 278 270 261 237 237 208 235 289 354 261 249 302 246 242 263 265
274 284 288 288 291 299 306 323 335 326 298 286 267 307 296 262 259 305 275 284 304 293 286 284 275 268 280 276 292 290 282 275 245 244 233 212 201 230 252 216 296 292 288 180 180 289 211
265 275 284 291 295 300 306 310 305 326 336 317 270 245 262 267 233 257 286 302 265 259 291 256 275 271 264 209 196 260 253 318 290 326 10 73 215 203 123 244 256 245 267 115 108 284 216
271 275 274 276 278 284 297 308 312 296 289 303 300 282 269 265 274 263 264 269 261 229 254 284 285 270 259 202 240 247 245 247 240 215 212 86 286 220 231 245 276 255 244 144 252 255 318
265 266 267 268 276 272 281 285 292 298 300 265 284 285 281 266 265 273 263 256 263 262 242 301 339 280 206 209 213 210 228 216 228 228 181 177 184 197 199 233 264 214 133 197 208 16 335
269 270 266 267 271 273 275 275 273 276 273 251 275 287 283 278 264 277 276 270 255 267 258 254 249 280 295 225 226 193 223 217 232 247 219 225 193 190 196 206 254 228 259 239 284 311 320